Date String (YYYY-MM-DD hh:mm:ss) UTC,Instrument flags,absolute air pressure of the measurement (hPa),sample flow rate (lpm),inlet stack bypass flow (lpm),air temperature of the measurement (°C),ambient temperature measured by the external sensor (°C),aerosol sample conditioner tube jacket temperature (°C),OPC LED temperature (°C),internal box temperature (°C),relative humidity of the measurement (%),span deviation,mass concentration of particles derived from Lorenz-Mie calculation of OPC scattering (μg/m³),mass concentration of particles derived from Lorenz-Mie calculation of OPC scattering (μg/m³),mass concentration of particles derived from Lorenz-Mie calculation of OPC scattering (μg/m³)
DateTimeUTC,F1_M11,P_M11,Q1_M11,Q2_M11,T1_M11,T2_M11,T3_M11,T4_M11,T5_M11,U1_M11,ZSPAN_M11,X0_M11,X2_M11,X1_M11
2023-07-10 10:00:00,SystemResetWarning,0830.6,5.01,000.00,029.6,028.3,000.0,038.1,031.2,28.8,-002.0,0010.77,0006.56,0005.97
2023-07-10 10:01:00,SystemResetWarning,0830.6,5.01,000.00,029.6,028.3,000.0,038.1,031.2,29.1,-001.8,0011.34,0006.54,0005.96
2023-07-10 10:02:00,SystemResetWarning,0830.6,5.00,000.00,029.7,028.4,000.0,038.1,031.2,29.6,-001.8,0011.41,0006.51,0005.96
2023-07-10 10:03:00,SystemResetWarning,0830.6,5.00,000.00,029.7,028.4,000.0,038.2,031.2,28.6,-001.6,0011.32,0006.51,0005.96
2023-07-10 10:04:00,SystemResetWarning,0830.6,5.00,000.00,029.7,028.4,000.0,038.2,031.2,28.0,-001.2,0011.11,0006.50,0005.95
2023-07-10 10:05:00,SystemResetWarning,0830.6,5.00,000.00,029.7,028.4,000.0,038.2,031.3,27.7,0000.0,0011.04,0006.53,0005.97
2023-07-10 10:06:00,SystemResetWarning,0830.6,5.00,000.00,029.7,028.4,000.0,038.2,031.3,28.5,0000.0,0010.90,0006.54,0005.99
2023-07-10 10:07:00,SystemResetWarning,0830.6,5.00,000.00,029.7,028.5,000.0,038.2,031.3,29.5,0000.0,0010.81,0006.54,0006.01
2023-07-10 10:08:00,SystemResetWarning,0830.6,5.01,000.00,029.8,028.5,000.0,038.2,031.3,31.5,0000.0,0010.80,0006.56,0006.04
2023-07-10 10:09:00,SystemResetWarning,0830.6,4.99,000.00,029.8,028.5,000.0,038.3,031.3,32.1,0000.0,0010.67,0006.59,0006.07
2023-07-10 10:10:00,SystemResetWarning,0830.6,4.99,000.00,029.8,028.5,000.0,038.3,031.3,32.2,0000.0,0010.62,0006.58,0006.07
2023-07-10 10:11:00,SystemResetWarning,0830.6,5.00,000.00,029.8,028.5,000.0,038.3,031.3,32.2,0000.0,0010.74,0006.56,0006.06
2023-07-10 10:12:00,SystemResetWarning,0830.6,5.02,000.00,029.8,028.5,000.0,038.3,031.3,32.0,0000.0,0010.70,0006.52,0006.04
2023-07-10 10:13:00,SystemResetWarning,0830.6,4.99,000.00,029.8,028.5,000.0,038.3,031.4,31.8,0000.0,0010.76,0006.55,0006.05
2023-07-10 10:14:00,SystemResetWarning,0830.6,4.99,000.00,029.8,028.6,000.0,038.3,031.4,31.8,0000.0,0011.13,0006.62,0006.11
2023-07-10 10:15:00,SystemResetWarning,0830.6,5.00,000.00,029.9,028.6,000.0,038.4,031.4,31.8,0000.0,0011.23,0006.74,0006.24
2023-07-10 10:16:00,SystemResetWarning,0830.6,5.01,000.00,029.9,028.6,000.0,038.4,031.4,31.8,0000.0,0011.26,0006.85,0006.35
2023-07-10 10:17:00,SystemResetWarning,0830.6,5.01,000.00,029.9,028.6,000.0,038.4,031.4,31.8,0000.0,0011.71,0006.95,0006.46
2023-07-10 10:18:00,SystemResetWarning,0830.6,5.01,000.00,029.9,028.6,000.0,038.4,031.5,31.7,0000.0,0011.98,0007.05,0006.54
2023-07-10 10:19:00,SystemResetWarning,0830.6,4.98,000.00,029.9,027.3,000.0,038.3,031.4,31.8,0000.0,0012.02,0007.14,0006.61
2023-07-10 10:20:00,SystemResetWarning,0830.6,5.01,000.00,029.8,025.5,000.0,038.2,031.2,31.8,0000.0,0012.04,0007.22,0006.70
2023-07-10 10:21:00,SystemResetWarning,0830.6,5.00,000.00,029.7,025.1,000.0,038.1,030.8,31.8,0000.0,0012.36,0007.30,0006.79
2023-07-10 10:22:00,SystemResetWarning,0830.6,5.01,000.00,029.6,025.3,000.0,038.1,030.6,32.0,0000.0,0012.82,0007.42,0006.91
2023-07-10 10:23:00,SystemResetWarning,0830.6,5.00,000.00,029.5,025.8,000.0,038.2,030.6,32.2,0000.0,0012.73,0007.57,0007.04
2023-07-10 10:24:00,SystemResetWarning,0830.5,5.00,000.00,029.5,026.2,000.0,038.1,030.7,32.1,0000.0,0012.84,0007.72,0007.16
2023-07-10 10:25:00,SystemResetWarning,0830.6,5.00,000.00,029.4,026.6,000.0,038.1,030.8,31.9,-001.0,0012.57,0007.78,0007.23
2023-07-10 10:26:00,SystemResetWarning,0830.6,5.01,000.00,029.4,026.9,000.0,038.1,030.8,31.2,-001.8,0012.58,0007.80,0007.24
2023-07-10 10:27:00,SystemResetWarning,0830.6,5.00,000.00,029.4,027.1,000.0,038.1,030.8,31.5,-002.3,0012.62,0007.78,0007.25
2023-07-10 10:28:00,SystemResetWarning,0830.7,5.00,000.00,029.4,027.4,000.0,038.1,030.9,31.6,-001.9,0013.09,0007.80,0007.25
2023-07-10 10:29:00,SystemResetWarning,0830.5,5.00,000.00,029.4,027.5,000.0,038.1,030.9,31.6,-001.7,0013.15,0007.84,0007.27
2023-07-10 10:30:00,SystemResetWarning,0830.5,5.00,000.00,029.4,027.7,000.0,038.1,030.9,31.6,-001.6,0012.88,0007.85,0007.28
2023-07-10 10:31:00,SystemResetWarning,0830.6,5.00,000.00,029.5,027.8,000.0,038.1,031.0,31.6,-001.4,0013.55,0007.89,0007.29
2023-07-10 10:32:00,SystemResetWarning,0830.6,4.98,000.00,029.5,027.9,000.0,038.1,031.0,31.0,-001.4,0013.44,0007.85,0007.26
2023-07-10 10:33:00,SystemResetWarning,0830.6,5.01,000.00,029.5,028.0,000.0,038.1,031.0,30.8,-001.2,0013.05,0007.83,0007.24
2023-07-10 10:34:00,SystemResetWarning,0830.6,5.01,000.00,029.5,028.0,000.0,038.1,031.0,30.4,-001.7,0012.70,0007.81,0007.21
2023-07-10 10:35:00,SystemResetWarning,0830.6,4.98,000.00,029.5,028.1,000.0,038.1,031.1,30.7,-001.1,0012.52,0007.78,0007.18
2023-07-10 10:36:00,SystemResetWarning,0830.7,5.00,000.00,029.5,028.1,000.0,038.1,031.1,30.4,-000.8,0012.64,0007.74,0007.15
2023-07-10 10:37:00,SystemResetWarning,0830.6,5.00,000.00,029.6,028.2,000.0,038.1,031.1,29.4,-000.5,0012.57,0007.68,0007.10
2023-07-10 10:38:00,SystemResetWarning,0830.6,5.01,000.00,029.6,028.2,000.0,038.1,031.1,30.0,-000.1,0012.50,0007.64,0007.05
2023-07-10 10:39:00,SystemResetWarning,0830.6,5.01,000.00,029.6,028.2,000.0,038.1,031.1,30.0,0000.2,0011.88,0007.59,0006.99
2023-07-10 10:40:00,SystemResetWarning,0830.7,5.00,000.00,029.6,028.3,000.0,038.1,031.2,30.1,-000.3,0011.49,0007.52,0006.92
2023-07-10 10:41:00,SystemResetWarning,0830.6,5.00,000.00,029.6,028.3,000.0,038.1,031.2,29.6,-000.1,0011.33,0007.40,0006.85
2023-07-10 10:42:00,SystemResetWarning,0830.6,4.99,000.00,029.6,028.3,000.0,038.2,031.2,28.8,-000.7,0011.08,0007.38,0006.79
2023-07-10 10:43:00,SystemResetWarning,0830.6,5.01,000.00,029.7,028.4,000.0,038.2,031.2,27.2,-000.6,0011.16,0007.35,0006.73
2023-07-10 10:44:00,SystemResetWarning,0830.7,5.01,000.00,029.7,028.4,000.0,038.2,031.2,26.6,-000.7,0011.39,0007.31,0006.68
2023-07-10 10:45:00,SystemResetWarning,0830.7,5.01,000.00,029.7,028.4,000.0,038.2,031.3,25.9,-000.6,0011.81,0007.25,0006.63
2023-07-10 10:46:00,SystemResetWarning,0830.7,4.98,000.00,029.7,028.5,000.0,038.2,031.3,26.8,-001.4,0011.72,0007.19,0006.61
2023-07-10 10:47:00,SystemResetWarning,0830.7,4.99,000.00,029.7,028.5,000.0,038.2,031.3,27.5,-002.1,0011.58,0007.17,0006.58
2023-07-10 10:48:00,SystemResetWarning,0830.7,5.02,000.00,029.8,028.5,000.0,038.3,031.3,27.8,-001.9,0011.65,0007.16,0006.54
2023-07-10 10:49:00,SystemResetWarning,0830.7,5.00,000.00,029.8,028.5,000.0,038.3,031.3,27.8,-001.5,0011.62,0007.10,0006.45
2023-07-10 10:50:00,SystemResetWarning,0830.7,5.00,000.00,029.8,028.5,000.0,038.3,031.3,27.1,-001.2,0011.59,0007.04,0006.37
2023-07-10 10:51:00,SystemResetWarning,0830.6,5.00,000.00,029.8,028.5,000.0,038.3,031.3,26.4,-000.4,0011.54,0006.96,0006.29
2023-07-10 10:52:00,SystemResetWarning,0830.7,5.00,000.00,029.8,028.6,000.0,038.3,031.4,26.2,0000.6,0011.60,0006.93,0006.20
2023-07-10 10:53:00,SystemResetWarning,0830.6,5.00,000.00,029.8,028.6,000.0,038.3,031.4,26.6,0000.3,0011.29,0006.81,0006.12
2023-07-10 10:54:00,SystemResetWarning,0830.7,4.99,000.00,029.9,028.6,000.0,038.3,031.4,27.3,0000.0,0010.68,0006.71,0006.07
2023-07-10 10:55:00,SystemResetWarning,0830.7,5.00,000.00,029.9,028.6,000.0,038.3,031.4,26.5,0000.0,0010.54,0006.65,0006.01
2023-07-10 10:56:00,SystemResetWarning,0830.6,5.01,000.00,029.9,028.6,000.0,038.4,031.4,26.2,0000.0,0009.92,0006.56,0005.95
2023-07-10 10:57:00,SystemResetWarning,0830.6,5.00,000.00,029.9,028.6,000.0,038.4,031.4,25.9,0000.0,0009.72,0006.46,0005.86
2023-07-10 10:58:00,SystemResetWarning,0830.6,5.00,000.00,029.9,028.6,000.0,038.4,031.4,25.9,0000.0,0009.52,0006.34,0005.77
2023-07-10 10:59:00,SystemResetWarning,0830.6,4.98,000.00,029.9,028.6,000.0,038.4,031.4,25.3,0000.0,0009.31,0006.24,0005.69
